Key statistics
Satellite CZ-6A DEB at a glance.
Uptime
844
Days in orbit
Revolutions
≈ 16.2
Per day
Orbit
SSO
Sun Synchronous Orbit
Inclination
98.5
Latest
Satellite identification and parameters
Extended collection of information and parameters for CZ-6A DEB.
Object identification
Identified? True
Debris? True
Object name: CZ-6A DEB
International designator: 2022-151BH
Object number (NORAD): 54314
Object ID (CCSDS): 54314
Country: PEOPLES REPUBLIC OF CHINA (PRC)
Current information (Y/N): Y
RCS size: SMALL
Orbital parameters
Decay date: March 4, 2025
Period: 89.012 minutes
Inclination: 98.5187 deg
SMA: 6603.776 km
Apoapsis: 236.387 km
Periapsis: 214.894 km
RAAN: 117.624 deg
Eccentricy: 0.0016274
Argument of periapsis: 262.7751 deg
Mean anomaly: 97.1683 deg
Mean motion: 16.17760809 rev/day
Mean motion (dot): 0.23258021 rev/day2
B* drag term: 0.014269 1/REarth
Two-line elements (TLE)
Creation date: March 3, 2025, 9:08 a.m.
Reference frame: TEME
Reference center: EARTH
Epoch: Feb. 26, 2025, 10:21 p.m. UTC
TLE line 0: 0 CZ-6A DEB
TLE line 1: 1 54314U 22151BH 25057.93163348 .23258021 31044-5 14269-1 0 9997
TLE line 2: 2 54314 98.5187 117.6240 0016274 262.7751 97.1683 16.17760809122181
Live tracking on map
Satellite CZ-6A DEB has decayed and is no longer in orbit. No tracking available.
In-orbit conjunctions
Satellite CZ-6A DEB has decayed and is no longer in orbit. No conjunctions available.
Associated space launch
Chinese satellite reported for atmospheric/ocean/environmental/spatial parameter research purposes, details TBD.
CZ-6A DEB was lifted into orbit during the mission ‘Long March 6A | Yunhai 3’, on board a Long March 6A space rocket.
The launch took place on Nov. 11, 2022, 10:52 p.m. from Launch Complex 9A.
For more information about the launch, click the button.
Long March 6A | Yunhai 3
Agency: N/A
Status: Launch Successful
Launch date: Nov. 11, 2022, 10:52 p.m. UTC
Rocket: Long March 6A
Launch pad: Launch Complex 9A
Location: Taiyuan Satellite Launch Center, People's Republic of China
...
Latest news about this satellite
There are no fresh news available about this satellite. Check back as we update our databases every day.
Newsletter sign-up
Weekly statistics, charts and insights to help you stay on top of the space industry.
